Regional Weather Roundup
Issued by NWS

Home | Current Version | Previous Version | Graphics & Text | Print | Product List | Glossary On
Versions: 1 2 3 4 5 6 7 8 9 10 11 12 13 14 15 16 17 18 19 20 21 22 23 24 25 26 27 28 29 30 31 32 33 34 35 36 37 38 39 40 41 42 43 44 45 46 47 48 49 50
929
ASUS43 KBIS 080302
RWRND

NORTH DAKOTA REGIONAL WEATHER ROUNDUP
NATIONAL WEATHER SERVICE BISMARCK ND
900 PM CST SUN FEB 07 2016

NOTE: "FAIR" INDICATES FEW OR NO CLOUDS BELOW 12,000 FEET WITH NO
SIGNIFICANT WEATHER AND/OR OBSTRUCTIONS TO VISIBILITY.


NDZ001>003-009>011-017-080400-
NORTHWEST NORTH DAKOTA

CITY           SKY/WX    TMP DP  RH WIND       PRES   REMARKS
WILLISTON      CLEAR     30  19  63 NW20G29   30.29R WCI  17
MINOT          PTCLDY    29  16  58 NW24G36   30.14R WCI  15
MINOT AFB      MOCLDY    28  20  72 NW25G32   30.14R WCI  13
$$

NDZ018>021-031>035-040>046-080400-
SOUTHWEST NORTH DAKOTA

CITY           SKY/WX    TMP DP  RH WIND       PRES   REMARKS
BISMARCK       MOCLDY    33  19  56 N29G41    30.13R WCI  19
DICKINSON      CLEAR     28  13  53 NW28G37   30.21R WCI  13
GARRISON         N/A     28  19  69 NW32G39   30.16R WCI  12
HETTINGER ARPT CLEAR     29  14  53 NW28G33   30.23R WCI  14
$$

NDZ004>008-012>016-024-026-027-054-080400-
NORTHEAST NORTH DAKOTA

CITY           SKY/WX    TMP DP  RH WIND       PRES   REMARKS
GRAND FORKS    LGT SNOW  15   7  70 N35G43    30.01R BLWGSNOWWCI  -7
GRND FRKS AFB  LGT SNOW  14   9  79 NW26G37   30.02R WCI  -6
DEVILS LAKE    FLURRIES  19  14  81 N29G36    30.03S WCI   0
$$

NDZ022-023-025-028>030-036>039-047>053-080400-
SOUTHEAST NORTH DAKOTA

CITY           SKY/WX    TMP DP  RH WIND       PRES   REMARKS
FARGO          LGT SNOW  15  10  80 N30G38    30.00R VSB 1   WCI  -5
JAMESTOWN      LGT SNOW  22  16  78 N29G36    30.01R WCI   4
$$





USA.gov is the U.S. government's official web portal to all federal, state and local government web resources and services.